Theta_e
325 324 321 320 320 318 315 313 311 310 310 310 311 310 310 309 309 308 306 305 304 304 303 303 302 303 303 303 303 305 306 308 309 309 308 307 306 309 314 318 324 325 324 324 324 324 324 323 323 323 322 320 318 318 317 316 316 315 315 315 314 314 313 313 313 313 312 312 312 312 312 312 312 312 311 312 312 311 311 311 311 311 311 311 311
327 326 324 323 323 317 315 314 313 311 311 311 312 311 310 309 308 307 306 303 302 302 300 300 300 300 300 301 301 301 302 304 307 308 308 307 306 306 310 314 318 321 320 321 322 323 322 322 322 321 318 318 317 317 317 316 316 315 314 314 314 313 312 312 312 312 311 311 311 311 311 310 310 310 311 311 310 311 311 311 311 311 311 311 311
327 327 326 325 322 318 316 316 313 312 312 313 313 312 311 309 308 305 303 302 301 300 299 298 298 298 298 299 299 299 299 300 303 306 306 306 305 305 305 309 312 316 319 318 318 318 319 321 320 320 320 318 318 317 316 316 314 314 313 313 313 313 312 311 311 311 310 310 310 310 310 310 310 310 310 311 311 311 311 311 311 311 311 311 311
328 328 328 326 322 319 318 317 314 313 314 314 313 312 311 310 308 305 302 301 300 299 299 297 296 296 296 296 297 297 297 297 298 300 303 304 304 303 303 303 307 310 313 317 317 317 317 317 317 317 318 318 317 317 315 315 314 313 313 312 312 311 310 310 310 310 310 310 310 310 310 309 309 310 310 310 310 310 310 310 310 310 311 310 310
328 328 326 327 323 320 319 318 316 315 315 314 313 312 311 307 304 303 301 300 299 299 299 296 295 295 295 295 295 295 296 296 296 296 297 299 301 301 301 301 301 304 307 311 315 315 315 315 315 316 317 316 317 316 315 315 314 313 312 312 311 311 311 311 309 310 310 311 310 310 310 310 310 310 310 310 310 310 310 309 309 309 309 309 309
329 328 327 327 324 322 320 319 318 316 315 314 313 312 309 306 303 301 301 299 297 296 296 295 294 293 294 293 294 294 294 294 293 294 294 294 295 297 298 298 298 298 299 304 309 313 314 314 315 315 314 314 314 314 313 313 313 312 312 312 311 311 311 311 310 310 310 310 310 309 309 309 310 310 310 309 309 309 309 309 309 309 309 308 308
331 330 328 328 325 322 320 319 318 315 314 313 312 311 308 306 303 300 299 297 296 297 296 295 294 294 293 293 293 293 293 293 293 293 293 293 293 293 293 292 294 295 296 295 300 306 311 312 313 313 313 313 313 313 313 312 312 311 311 311 310 310 310 309 309 309 309 309 308 308 309 309 309 309 309 309 309 309 308 308 308 308 308 308 308
332 331 328 328 326 323 321 319 317 315 314 313 312 309 308 306 304 302 298 296 296 295 295 294 294 294 292 292 292 293 292 292 292 292 292 292 292 291 291 291 290 292 294 292 294 300 306 310 311 311 312 312 312 312 312 312 310 310 310 311 309 309 308 309 308 308 308 307 307 308 308 308 308 309 308 308 308 308 308 308 308 307 307 307 307
332 331 330 329 326 323 321 319 317 316 315 313 311 309 307 306 303 302 300 297 296 294 294 294 294 294 293 291 291 292 291 292 292 292 293 291 290 291 291 291 293 294 288 288 291 294 301 304 307 308 309 310 310 311 311 310 310 310 310 309 309 307 308 307 307 307 307 306 306 307 307 307 307 307 308 307 307 307 307 307 307 306 307 307 307
332 331 330 330 328 324 322 319 317 315 314 313 311 310 308 305 302 301 299 298 295 294 293 294 295 294 293 292 291 290 290 290 291 293 291 290 290 290 290 290 290 289 289 288 288 290 292 296 300 303 306 308 310 310 310 310 309 310 310 309 308 307 306 306 306 306 306 306 306 306 306 306 307 307 307 307 307 307 307 306 306 306 306 306 306
331 329 328 328 328 325 322 320 317 315 314 312 310 308 307 304 301 300 299 296 295 295 294 295 295 294 292 291 290 289 290 290 291 290 289 290 291 292 291 290 289 289 289 288 288 289 288 288 289 291 297 305 306 308 309 309 308 309 309 308 308 306 306 305 305 305 304 304 304 305 305 306 306 306 306 306 306 306 306 306 305 305 306 306 306
330 329 328 327 327 324 322 320 318 316 313 311 309 307 305 303 300 299 297 295 295 295 295 294 293 292 291 290 290 289 289 290 289 289 289 289 289 288 288 288 289 288 288 288 289 288 288 287 289 289 291 297 301 303 305 306 307 308 307 307 307 306 305 304 304 304 304 304 304 304 304 305 305 306 306 306 306 306 305 306 305 305 306 305 306
329 329 328 325 327 325 322 319 318 316 314 312 310 308 306 303 300 298 297 295 294 295 294 293 290 289 290 289 288 288 289 289 288 288 288 288 287 287 287 288 287 287 287 288 288 288 287 287 287 287 288 288 291 296 299 300 303 306 308 307 306 305 305 305 303 303 303 303 304 303 304 305 305 305 305 305 305 305 305 305 306 306 306 306 306
327 329 327 326 325 324 322 319 318 316 315 313 310 306 304 302 300 297 298 295 293 294 294 292 290 288 286 287 288 288 287 286 287 288 288 288 288 288 288 288 287 287 288 287 286 286 287 287 287 287 287 288 288 288 289 291 295 301 304 305 306 305 305 304 304 302 302 303 303 303 303 304 304 304 304 305 305 305 305 305 305 305 306 306 306
327 326 326 325 323 322 321 320 318 316 314 311 308 305 303 301 300 298 295 296 294 295 293 293 289 289 290 288 286 285 287 285 286 287 288 287 287 288 289 287 288 286 287 287 286 286 287 286 286 286 286 286 287 287 289 291 293 295 298 300 303 305 304 304 303 302 302 302 303 303 303 304 303 303 304 304 305 305 305 305 305 305 305 305 305
325 324 324 324 322 320 319 318 318 316 314 310 307 304 302 300 300 299 297 292 292 293 294 295 293 290 286 288 286 286 283 282 282 284 286 287 288 287 288 287 287 287 286 286 286 286 285 286 286 286 286 286 286 287 288 287 292 293 294 295 297 301 302 303 303 302 301 302 302 303 303 303 303 303 303 304 304 304 304 304 304 304 304 304 305
323 322 321 322 321 320 319 318 317 315 314 311 308 306 303 301 300 298 296 295 292 292 293 294 295 295 293 289 287 287 286 284 282 282 285 285 286 286 287 287 286 286 285 285 286 286 286 286 286 286 286 286 286 286 286 287 287 291 289 292 295 296 299 302 301 301 301 301 301 301 302 302 302 302 302 303 303 303 304 304 304 304 304 303 304
318 320 319 318 318 318 318 317 316 315 314 312 309 307 303 301 300 299 297 298 295 292 291 293 296 295 298 298 293 289 287 282 283 278 283 284 285 285 285 286 286 286 286 286 285 286 287 286 286 286 286 286 286 286 285 286 288 286 287 289 295 295 296 297 299 300 301 300 300 301 301 301 301 301 301 301 302 303 303 303 303 303 303 303 303
315 316 317 317 317 316 316 315 315 315 312 311 308 306 304 302 301 301 300 300 297 293 292 292 294 297 297 298 296 295 291 284 281 278 277 281 283 283 284 285 285 285 286 286 285 285 286 286 285 286 286 286 286 286 286 286 289 288 291 295 296 295 296 296 297 298 299 299 299 299 300 301 300 300 300 300 301 302 302 303 303 302 302 302 302
313 314 315 315 315 315 315 314 314 314 311 311 308 306 304 303 302 302 302 302 299 296 294 294 293 295 297 297 294 293 289 290 285 281 279 278 279 283 284 284 285 285 286 286 286 285 285 285 285 285 285 285 285 286 286 286 284 285 286 292 295 295 295 295 296 296 297 297 299 299 299 300 300 300 299 300 300 301 302 302 302 302 302 302 302
310 311 312 313 313 314 314 313 313 312 309 311 309 307 304 303 301 301 301 300 300 300 298 296 296 296 295 296 295 292 291 289 286 285 279 278 278 279 280 283 283 283 285 286 286 286 286 285 285 285 286 285 285 285 285 285 284 283 287 289 292 295 295 295 296 296 296 296 297 297 298 299 299 299 299 299 300 301 301 302 302 302 301 302 301
303 306 308 310 311 312 313 313 313 312 308 310 308 306 304 303 301 301 301 300 300 300 299 299 298 298 297 296 295 292 290 288 287 286 283 281 279 279 280 280 279 280 284 284 285 285 286 286 285 285 285 285 284 284 284 284 284 284 285 287 290 292 293 294 294 295 295 295 295 296 296 297 298 298 298 299 299 300 301 301 301 301 302 301 301
301 301 305 305 307 308 311 312 313 309 308 310 308 307 305 303 302 301 300 300 300 300 300 301 299 299 298 296 295 294 291 287 286 286 282 280 279 279 280 280 279 278 282 284 285 285 285 285 285 285 285 284 284 283 283 283 286 285 285 287 288 289 290 292 292 293 295 295 295 295 296 295 296 296 297 298 299 299 300 301 300 300 301 300 300
300 299 299 301 303 304 306 308 310 310 309 310 309 308 306 304 303 302 301 301 302 301 301 301 300 300 299 298 297 295 292 289 288 288 286 283 282 280 280 279 279 279 282 283 284 285 285 285 285 285 285 284 283 283 282 284 284 287 284 286 287 289 290 291 292 292 293 293 294 295 295 295 295 295 296 297 298 299 300 300 300 300 300 300 299
299 299 299 298 300 301 303 305 306 307 309 309 308 308 306 305 304 302 302 302 302 302 301 301 300 300 299 298 297 295 293 290 290 289 287 285 283 279 279 280 277 279 281 282 282 283 285 285 285 285 284 284 284 283 282 283 284 287 286 285 287 288 289 290 290 291 291 291 293 294 295 295 294 295 295 295 296 298 299 299 299 300 300 299 298
299 299 300 298 298 300 302 304 305 307 307 307 307 307 306 305 304 303 302 303 303 302 302 301 300 299 297 295 295 295 291 288 289 289 286 283 281 282 280 280 279 280 281 281 281 281 282 284 284 284 283 283 283 282 282 282 284 288 286 281 283 286 288 289 290 290 290 291 292 293 294 294 294 294 294 296 296 296 297 298 299 300 299 299 298
301 300 299 298 298 299 300 301 302 303 303 304 304 304 304 303 302 302 302 302 302 301 300 299 298 296 296 294 290 290 287 285 285 286 285 284 283 282 281 279 277 278 279 280 280 281 281 282 284 283 283 283 283 283 283 282 284 288 287 281 279 285 288 289 290 291 291 291 292 293 293 294 293 294 294 294 295 295 296 297 298 299 298 298 297
303 301 299 298 298 298 298 299 300 300 301 303 304 303 302 302 301 301 300 301 300 298 295 296 295 294 292 290 288 287 286 285 285 284 283 284 284 283 282 281 279 275 277 277 278 280 282 281 281 283 283 283 284 284 285 285 283 289 286 280 279 280 286 288 291 292 292 292 292 292 293 293 293 293 294 293 293 293 294 295 295 295 294 294 294
302 301 300 298 297 297 297 297 298 299 300 301 302 302 302 301 300 298 298 296 297 295 292 293 291 290 289 289 288 286 284 284 283 284 284 283 283 282 282 281 280 278 275 275 278 277 279 282 280 282 284 284 284 284 284 283 283 285 281 280 279 279 284 287 290 291 292 292 292 292 292 292 292 292 293 292 292 292 293 294 294 294 294 293 294
301 299 300 297 296 295 296 296 296 297 297 297 299 299 299 299 298 298 298 294 294 292 291 291 290 289 288 287 286 285 284 282 282 282 282 282 281 281 280 280 280 280 278 276 276 278 279 281 281 282 283 283 284 284 283 281 284 285 281 280 280 279 285 287 288 290 291 292 292 291 291 292 292 292 292 292 292 292 293 293 294 294 294 294 294
298 296 296 293 292 292 292 292 293 293 294 294 294 295 295 296 293 294 293 293 293 291 290 291 289 289 287 286 285 285 282 281 281 281 281 281 281 280 280 281 281 281 280 277 275 278 279 280 280 282 282 282 283 283 283 282 283 285 281 279 279 283 285 285 286 288 289 290 290 291 291 292 292 292 292 292 292 292 293 293 293 293 294 293 293
297 295 294 293 291 291 291 291 291 291 292 292 292 293 293 293 292 292 291 292 291 290 289 289 289 288 287 285 285 284 281 281 281 281 280 280 280 280 280 280 280 280 280 278 276 277 280 281 281 282 282 282 283 282 281 281 283 285 280 279 279 283 281 280 284 286 287 289 290 291 292 292 292 293 292 292 292 292 292 291 292 292 292 292 292
295 294 293 292 291 291 290 290 290 290 290 291 291 292 292 291 290 290 290 291 290 289 288 288 288 287 286 285 284 283 281 280 281 280 280 280 280 280 280 280 280 279 279 277 276 276 278 280 282 282 282 282 281 281 280 280 280 281 282 279 279 279 279 279 279 283 285 287 288 289 290 291 291 291 291 291 291 291 291 291 291 292 292 292 292
294 293 292 291 290 290 289 289 289 289 290 290 290 291 291 291 290 290 290 289 289 288 287 286 286 285 284 284 283 281 280 280 279 279 279 279 279 279 279 279 279 279 278 277 277 277 276 278 278 281 281 282 279 281 280 279 279 280 279 279 280 279 278 278 278 279 284 286 287 288 289 290 291 291 291 291 291 291 291 292 291 291 292 291 291
292 293 292 290 290 289 288 288 288 288 289 289 289 290 290 291 290 289 290 289 288 287 286 285 284 283 283 282 281 280 280 278 278 278 279 278 279 279 278 279 278 278 279 279 277 277 277 277 278 278 279 280 279 279 279 280 280 280 279 279 279 280 280 279 279 279 283 286 287 288 289 290 290 291 291 291 291 291 291 291 291 291 291 291 291
290 290 290 290 289 288 288 287 287 287 288 288 288 289 290 290 289 289 289 288 287 287 286 284 283 282 282 281 280 279 278 278 278 278 279 279 279 279 278 278 278 278 279 279 279 277 278 277 277 277 277 277 278 279 279 280 280 280 280 279 278 278 278 279 279 279 282 286 287 288 288 289 289 290 290 290 291 291 291 291 291 291 291 291 290
290 289 288 288 288 287 287 287 286 287 287 287 287 288 288 288 288 288 288 287 286 286 285 283 283 282 281 280 279 278 278 277 278 278 279 279 279 279 278 279 278 279 279 279 279 278 277 277 277 278 278 278 277 277 278 278 277 277 277 277 278 277 277 278 279 280 283 286 286 287 287 288 288 289 290 290 290 290 290 290 290 290 290 290 289
289 288 288 287 287 287 287 286 286 286 286 287 287 287 287 287 287 287 287 286 285 284 283 282 282 281 280 279 278 278 278 278 278 278 278 278 279 279 279 279 279 279 279 278 278 278 278 277 277 277 278 277 277 278 277 278 276 276 276 276 276 277 277 277 278 279 279 280 280 281 284 286 287 288 289 289 290 290 289 290 289 289 288 288 288
288 287 287 287 286 286 286 286 286 286 286 286 286 286 286 286 286 286 285 284 283 283 282 281 281 280 280 279 277 277 278 278 278 278 278 279 279 279 279 279 279 279 279 278 279 278 278 277 277 278 277 278 278 277 277 277 277 276 276 276 276 277 276 276 277 278 278 279 282 285 283 282 283 283 285 287 288 288 288 288 288 288 287 287 287
287 287 287 286 286 286 286 286 285 285 285 284 285 285 285 285 286 285 284 283 282 282 282 281 280 280 279 279 278 279 279 279 279 279 280 279 279 279 279 280 279 279 279 279 279 278 278 278 278 277 278 277 276 277 277 276 275 275 276 275 275 276 277 276 276 276 277 278 277 278 282 284 285 285 287 287 287 287 287 287 286 286 286 286 286
287 287 287 286 285 285 285 285 285 285 285 284 285 284 284 284 285 284 284 283 282 281 281 280 280 279 279 279 279 280 281 282 283 283 282 282 280 279 279 280 279 279 279 279 279 278 278 278 278 279 277 277 277 276 276 276 275 276 277 275 275 276 276 276 277 277 277 277 277 278 277 278 278 279 279 279 280 283 283 285 285 285 285 285 285
286 286 285 285 285 285 284 284 284 285 285 285 285 287 287 285 284 284 284 283 282 281 280 279 278 278 279 279 281 283 283 283 283 284 284 284 283 282 281 280 280 279 279 278 278 279 278 278 278 278 277 276 277 278 278 278 277 277 277 277 276 277 276 276 277 277 276 277 277 276 277 278 277 277 277 276 278 279 278 278 278 280 281 283 284
285 284 284 284 284 284 284 284 284 284 284 285 286 289 289 288 284 283 283 282 281 280 280 279 278 278 278 280 281 282 282 283 283 285 285 285 285 284 284 283 282 281 279 279 278 279 278 278 278 278 278 278 278 278 278 278 278 277 276 276 276 276 275 274 273 277 277 275 275 276 276 277 276 275 276 276 276 276 277 277 281 282 283 284 285
284 284 284 284 284 283 283 283 283 283 283 286 289 289 289 289 287 283 282 282 281 280 279 279 278 278 278 279 280 281 281 282 283 283 284 284 284 284 284 284 284 284 284 281 280 279 279 278 277 278 278 278 279 278 278 277 277 277 277 276 276 275 275 275 275 275 277 278 276 274 275 277 275 275 275 276 276 276 277 280 282 284 284 285 285
283 283 283 283 283 283 283 282 282 282 281 287 289 289 289 289 288 284 282 281 281 280 279 278 278 278 279 279 279 279 280 282 282 282 282 283 284 284 284 284 284 285 285 285 285 282 280 279 278 278 279 279 278 279 278 278 280 277 277 276 276 276 276 275 276 276 277 276 276 276 276 278 278 276 276 277 277 276 277 281 283 284 284 285 284
284 283 283 283 283 283 282 282 282 281 281 287 289 289 289 289 288 285 282 282 281 280 279 279 278 278 279 279 279 278 279 280 281 281 281 281 282 282 282 282 282 283 284 285 285 285 284 282 280 278 280 280 279 280 280 280 278 277 276 276 277 277 277 277 278 278 279 280 277 277 275 277 279 278 277 278 279 277 277 280 283 284 284 284 284
284 283 283 283 283 283 283 283 282 282 281 287 288 289 289 289 287 285 282 282 281 280 279 279 278 278 279 279 279 279 279 279 280 281 280 280 280 280 280 280 281 281 281 282 282 283 283 283 282 281 281 281 281 280 280 280 279 279 279 279 279 279 279 280 280 280 280 281 279 278 274 277 279 277 277 277 278 277 276 279 281 283 283 284 284
284 284 284 284 283 283 283 282 282 280 282 287 288 288 288 288 286 282 282 281 280 279 279 278 279 279 279 280 280 279 279 279 281 283 282 281 280 279 279 279 279 279 279 282 283 284 283 281 281 281 281 281 283 282 283 283 283 283 282 282 281 280 278 277 276 277 277 279 279 277 275 275 278 276 276 277 276 275 276 274 278 281 282 283 283
283 283 283 283 283 282 282 282 281 280 282 286 287 288 288 287 284 282 281 280 279 278 278 279 279 279 280 280 280 280 279 279 282 285 284 282 279 279 278 278 278 278 278 280 283 285 285 285 285 285 286 286 286 285 285 285 284 283 281 279 278 278 276 274 275 276 276 278 278 278 276 275 277 277 275 277 276 275 274 274 273 278 280 281 282
283 283 283 282 282 282 282 281 281 280 282 285 287 288 287 286 283 281 280 279 279 278 278 279 279 280 280 282 281 280 280 280 284 286 286 283 279 279 278 278 277 276 277 279 279 280 284 284 284 284 284 284 284 285 285 285 285 284 280 277 278 278 276 276 274 275 276 277 277 278 275 274 276 276 274 275 275 274 274 274 274 275 278 279 280
282 282 282 282 281 281 281 281 282 281 282 284 287 287 287 285 283 281 280 279 278 278 278 278 278 279 280 281 281 281 281 282 285 286 286 284 280 279 278 277 276 275 277 278 277 276 277 277 278 279 280 282 282 281 281 283 283 283 281 280 279 277 275 275 275 275 273 274 277 277 274 274 274 274 274 271 270 273 275 273 273 274 274 274 274
Wind_Speed
7 8 8 8 7 7 7 6 6 6 6 6 5 5 6 6 6 4 5 5 5 5 5 5 5 5 6 6 5 6 6 6 6 6 6 6 7 14 17 17 11 11 14 13 14 14 15 15 16 17 19 17 17 18 18 18 18 18 18 19 19 18 19 18 18 18 19 20 19 19 19 20 20 20 20 20 20 20 21 21 21 22 21 22 22
6 7 8 7 7 8 8 7 7 6 6 6 6 6 6 6 5 5 5 5 6 6 6 6 6 5 5 6 6 6 6 6 6 6 6 7 7 9 18 17 18 16 13 14 14 15 13 14 14 16 14 14 16 17 18 18 18 18 18 18 18 18 17 18 18 18 19 19 19 18 19 19 20 19 19 20 20 20 20 21 21 21 21 22 22
6 6 7 6 6 8 8 7 7 6 6 6 6 6 6 6 6 6 6 6 6 6 6 6 5 5 4 6 6 6 6 6 6 5 6 7 7 7 11 17 19 18 15 13 12 11 12 14 15 15 15 15 15 16 17 17 17 17 17 16 17 16 16 17 17 17 18 18 18 18 18 18 19 18 19 19 19 19 20 20 21 21 21 22 22
6 6 7 6 6 7 7 7 7 7 6 6 7 7 6 5 5 5 5 6 6 6 6 6 6 5 5 5 6 6 6 6 6 6 6 6 6 7 7 10 16 19 18 12 12 11 11 11 11 11 12 14 15 16 16 16 16 16 15 16 16 16 16 16 16 17 17 17 17 18 18 18 18 18 18 19 19 19 19 19 20 20 21 21 21
7 7 6 6 6 7 6 7 7 7 6 6 7 7 7 6 6 6 6 5 6 6 6 6 5 4 5 5 6 6 5 6 6 5 5 5 6 6 7 7 7 12 15 18 11 12 11 11 11 11 12 13 14 14 15 15 15 15 15 14 15 15 15 15 16 16 16 16 16 17 17 17 17 17 17 18 18 18 18 19 19 19 20 21 22
8 7 6 7 6 6 7 6 6 6 7 7 7 7 7 7 7 7 6 6 6 6 6 6 5 5 4 4 6 6 6 6 5 5 4 5 5 6 7 6 7 6 8 13 16 10 11 11 11 12 12 13 14 14 13 14 13 14 14 14 14 14 14 14 14 15 15 15 16 16 16 16 16 16 16 17 17 18 18 19 19 20 20 21 21
9 8 8 8 8 6 7 7 6 7 7 6 6 6 7 8 7 7 7 6 6 6 6 6 5 5 4 4 6 6 6 6 6 5 5 5 6 6 6 5 6 6 6 6 9 14 12 11 11 11 11 12 13 12 13 12 12 12 14 13 13 13 13 13 13 14 14 14 14 15 15 15 15 16 16 17 17 17 18 18 19 20 20 20 20
7 9 8 8 8 8 7 7 8 7 7 7 6 6 6 6 7 9 9 7 7 6 6 6 6 5 4 4 5 6 6 5 5 5 5 6 6 6 6 6 6 6 5 5 6 7 14 15 13 12 11 11 11 12 12 11 10 12 13 12 12 12 12 12 13 13 13 13 14 14 14 14 15 15 16 16 16 17 17 18 19 19 20 20 20
8 9 8 8 8 8 7 8 8 8 8 8 7 6 7 5 5 6 9 9 8 8 7 6 6 5 5 4 4 5 6 5 5 4 5 5 5 5 4 4 4 6 5 6 6 6 10 16 15 14 11 11 11 11 10 9 11 11 12 12 11 11 11 11 11 12 12 12 13 13 13 13 14 14 15 15 16 16 16 17 17 18 19 20 20
8 8 8 8 9 9 8 9 8 8 8 8 8 7 6 7 7 4 6 9 8 9 8 7 6 6 6 5 4 5 5 5 4 4 6 5 5 5 4 5 5 4 5 3 4 5 5 9 13 12 11 11 12 12 10 9 9 10 11 12 11 11 11 10 11 11 11 11 12 12 12 13 13 13 14 15 15 16 16 17 17 18 19 19 19
8 7 8 8 8 8 9 10 9 8 9 8 8 8 7 5 7 6 3 3 8 8 9 7 7 5 6 6 5 3 3 4 5 6 6 4 5 4 5 5 4 4 4 4 4 4 5 5 5 5 7 13 11 12 12 11 9 8 9 10 11 10 10 10 10 9 9 10 9 10 11 11 12 13 13 14 15 15 15 16 17 18 18 18 19
8 7 8 9 8 8 9 9 9 9 9 9 8 8 10 10 8 10 8 5 4 8 9 9 8 7 6 6 5 3 4 3 4 4 4 4 4 6 6 5 5 4 4 4 5 4 4 4 4 5 4 8 14 15 16 15 12 11 8 8 8 8 8 8 8 9 8 8 9 9 10 10 11 12 13 13 13 13 14 15 16 17 18 18 18
9 9 9 9 9 8 9 9 10 10 10 11 12 11 10 10 8 6 11 9 5 7 8 9 11 6 5 5 4 3 1 3 3 4 4 4 5 6 5 5 4 4 4 4 4 4 4 4 4 3 3 4 7 13 15 16 15 13 14 10 6 7 7 7 6 7 7 7 8 8 9 10 11 12 12 12 12 13 13 14 15 16 17 17 17
9 10 10 10 9 9 9 10 9 9 9 9 10 9 9 9 8 6 2 10 9 10 10 10 4 7 8 4 2 2 1 2 3 2 3 4 4 5 5 4 4 4 4 5 4 4 4 4 4 4 4 5 5 5 7 8 10 14 14 16 9 5 6 5 6 6 6 6 7 7 8 9 10 11 11 11 12 12 13 14 15 16 16 17 17
9 10 9 9 10 9 9 10 11 10 8 7 8 11 10 12 11 10 8 2 4 6 11 8 7 6 6 7 3 3 1 0 0 2 3 4 4 4 4 4 4 4 5 5 4 4 4 4 4 3 3 4 4 4 5 5 7 12 13 14 14 8 5 4 4 5 5 6 6 7 8 9 10 10 11 11 12 12 13 14 15 15 16 16 17
9 9 8 9 10 10 8 9 10 10 10 10 10 11 11 11 10 8 10 10 6 8 9 6 8 13 5 4 4 4 1 8 4 2 3 4 5 4 4 4 2 2 5 5 4 4 3 3 3 3 3 3 4 4 3 3 6 8 9 9 9 8 6 4 4 4 5 5 6 7 8 9 10 10 11 12 12 13 14 14 15 15 15 16 17
8 8 8 9 8 9 9 9 9 10 9 10 11 13 15 14 15 14 14 13 11 8 10 8 9 7 8 7 2 3 6 3 7 0 2 3 3 5 4 5 4 2 5 4 5 4 4 3 3 3 3 3 4 4 4 3 3 3 3 4 4 5 5 5 4 4 4 5 7 7 8 9 10 10 11 12 13 13 14 14 15 15 15 16 17
4 7 7 8 8 9 10 10 10 10 10 10 10 10 11 13 14 14 15 11 14 11 11 9 6 9 4 3 6 5 6 5 8 4 1 2 3 4 4 5 5 4 5 5 5 4 4 4 3 3 3 3 3 4 4 3 3 3 0 1 4 3 4 4 5 5 6 7 7 8 9 9 10 11 12 12 13 13 14 14 15 15 16 16 17
5 5 6 8 8 9 9 9 10 11 11 10 10 11 12 13 10 7 9 6 7 12 13 13 4 6 6 3 3 2 6 9 6 5 2 1 3 3 3 4 4 4 5 5 5 5 4 4 4 3 2 2 2 4 4 4 4 4 2 3 3 2 3 3 4 5 6 7 8 8 9 10 10 11 12 13 13 13 14 14 15 15 16 16 16
5 5 6 8 8 8 9 9 9 9 10 11 12 11 9 7 8 10 8 8 9 10 12 12 14 10 10 6 2 3 10 2 5 8 6 8 3 1 1 4 3 3 4 5 5 6 5 4 4 3 3 2 1 3 4 3 3 2 1 2 2 2 2 2 3 4 5 7 8 9 10 11 11 12 13 13 14 14 14 14 15 15 16 16 16
5 5 6 7 8 9 9 9 9 8 8 9 10 11 14 14 13 10 10 9 9 9 8 11 10 9 11 7 5 4 6 2 6 3 4 4 1 5 3 1 1 3 4 5 5 5 5 5 4 4 4 3 2 2 2 4 4 3 1 2 3 3 3 3 4 4 5 6 8 9 10 11 12 13 14 14 14 14 14 14 15 15 16 16 16
5 4 5 5 7 8 9 10 10 9 9 9 10 11 11 11 13 14 13 13 10 9 10 10 10 7 11 10 9 5 3 3 4 3 3 5 8 8 8 9 8 6 5 6 5 5 5 5 5 4 5 5 4 3 2 3 3 2 0 2 3 4 4 4 5 5 5 6 7 8 10 11 12 13 14 15 15 15 15 15 15 15 16 16 16
4 4 5 5 6 6 8 9 9 8 10 9 10 11 11 12 12 12 11 13 11 11 9 9 9 8 8 8 10 11 10 9 7 4 4 3 4 3 4 7 6 4 6 5 5 4 5 5 5 5 5 5 5 5 4 4 4 3 3 3 4 4 5 5 6 6 7 7 8 9 10 10 11 13 14 15 15 15 16 16 16 16 17 17 17
5 5 5 4 5 5 5 6 8 8 10 9 9 10 10 10 10 10 11 12 10 10 9 9 10 8 8 9 9 7 5 7 7 7 6 5 7 7 7 4 2 3 2 4 3 5 4 5 5 5 5 5 5 5 4 5 5 8 4 4 5 6 6 6 7 7 8 8 9 10 10 11 12 13 14 15 15 16 16 16 16 17 18 17 17
7 7 6 5 5 6 6 7 7 7 9 9 9 10 9 10 10 11 11 12 12 11 11 11 11 11 10 10 9 8 7 6 7 7 5 7 8 6 3 6 4 3 2 4 2 3 5 6 6 5 6 5 5 5 5 5 4 7 7 4 6 7 8 8 8 9 9 10 10 11 12 12 13 14 15 15 16 16 17 17 17 18 18 17 18
9 9 8 7 6 6 7 7 7 7 8 10 10 9 9 10 10 11 12 11 10 11 11 8 7 7 6 7 9 8 7 6 9 8 7 8 7 9 7 3 3 4 2 3 2 3 4 5 5 5 6 5 5 5 5 6 5 9 8 5 4 7 9 9 9 10 10 11 12 13 13 13 14 15 15 16 16 17 17 18 18 18 18 19 19
10 9 9 10 10 8 8 8 7 7 6 7 7 7 7 6 7 8 9 7 9 8 7 5 7 7 7 6 6 6 7 6 8 7 7 8 9 9 10 8 3 2 3 3 3 6 4 3 5 6 6 6 5 6 6 5 5 9 8 4 3 7 9 10 11 12 12 12 13 14 15 15 15 16 16 16 17 17 18 18 19 19 19 19 19
8 8 9 10 10 10 8 8 6 6 6 7 7 7 7 8 7 7 9 7 8 6 5 6 7 7 8 7 7 7 6 6 7 7 6 8 8 8 8 9 9 3 2 3 4 6 5 4 3 6 6 7 6 6 6 6 5 8 7 4 4 4 9 11 12 13 13 13 14 15 16 16 16 17 17 17 17 18 18 19 19 18 19 19 19
8 8 9 8 8 9 8 8 7 7 6 7 7 7 7 7 8 7 8 6 8 7 5 6 6 6 6 7 8 6 5 7 7 7 7 7 7 8 8 9 8 8 4 5 5 6 4 6 4 6 7 6 6 5 6 6 6 6 4 5 5 5 8 12 13 14 14 15 16 17 18 18 18 18 18 18 18 18 19 20 19 19 20 21 21
6 6 7 8 8 8 8 8 7 8 8 6 7 7 7 7 8 8 8 7 6 5 6 5 5 6 8 8 8 6 3 6 7 7 7 8 7 7 6 5 7 8 6 6 4 5 1 3 3 3 5 7 5 5 5 6 6 7 4 5 5 5 9 13 14 15 15 16 17 18 19 20 20 19 19 19 18 19 20 21 20 21 20 21 22
6 6 6 7 7 7 7 7 7 7 7 7 6 7 7 7 6 7 6 8 8 7 6 9 7 6 8 9 7 6 5 6 7 8 7 8 8 7 7 7 6 7 7 4 4 1 3 4 5 2 6 7 6 5 4 4 6 6 5 5 6 8 11 10 14 15 17 18 18 19 20 20 20 20 20 19 20 20 21 21 21 21 21 22 22
6 6 7 7 7 7 6 6 6 6 6 6 5 5 6 6 7 7 6 8 9 9 7 6 7 8 9 10 8 7 6 7 7 8 8 7 7 7 7 7 6 6 6 4 4 2 0 3 4 2 4 5 5 5 4 3 4 8 5 6 7 7 7 7 11 16 17 18 19 19 19 20 20 20 20 20 21 21 22 21 22 22 22 22 22
6 7 7 7 7 7 7 7 7 7 7 6 6 6 6 6 5 5 5 7 8 7 8 7 6 8 9 10 8 7 7 9 8 8 8 8 7 7 7 7 7 5 6 4 3 0 1 1 2 2 2 3 2 4 4 4 5 5 5 6 6 6 6 7 7 11 17 18 19 19 20 20 21 20 19 20 21 21 21 21 21 22 21 21 21
7 8 8 7 7 7 7 7 7 7 6 6 6 7 7 7 6 5 7 7 8 8 7 9 8 8 10 11 9 7 6 9 9 9 9 8 8 8 7 7 7 6 3 3 2 2 1 1 1 2 1 2 2 2 7 6 7 5 7 7 6 6 7 7 7 8 14 17 19 19 20 21 21 20 20 19 20 20 20 21 21 21 21 21 21
5 7 7 8 8 7 7 7 7 7 7 7 6 6 7 8 8 7 7 8 9 10 10 10 10 10 11 11 11 9 7 10 9 9 8 8 7 9 8 7 7 6 5 4 3 1 1 2 1 1 2 2 4 5 4 6 7 6 7 8 7 6 6 7 8 7 12 17 19 20 21 21 21 20 20 20 20 19 20 21 22 22 21 21 21
6 5 6 7 7 7 7 7 7 7 7 7 7 7 8 8 9 9 8 8 8 10 11 11 11 11 12 11 10 10 9 11 9 8 7 8 9 8 8 6 7 6 4 5 4 3 0 1 2 1 2 3 5 5 5 5 6 7 7 7 5 6 7 7 8 9 10 17 20 21 22 21 21 21 21 21 20 20 20 22 22 22 21 21 21
6 6 5 5 7 7 7 8 8 8 8 8 8 7 7 7 8 8 8 8 8 8 9 11 12 13 12 13 11 10 11 12 9 9 8 10 8 8 8 6 6 5 5 5 3 1 1 3 4 3 3 3 3 4 5 6 5 5 5 7 7 7 9 9 7 8 11 18 20 22 21 21 21 21 21 21 21 21 21 22 22 21 21 21 21
7 6 7 6 7 8 8 8 8 7 7 7 8 8 8 7 7 7 8 8 8 8 8 8 10 11 12 12 11 11 12 13 10 9 9 10 9 9 9 7 6 6 5 3 2 1 1 4 4 6 3 4 5 5 4 5 6 6 7 7 6 7 7 9 8 7 6 7 7 9 13 16 19 23 22 21 22 22 22 22 21 21 20 20 21
8 7 6 7 6 7 6 6 7 7 7 7 8 7 7 7 8 8 8 7 7 7 7 7 7 8 10 11 10 10 11 12 12 11 10 9 8 9 8 8 7 6 5 4 3 3 4 4 5 5 5 4 5 7 5 5 6 6 6 8 10 6 6 9 10 6 5 8 11 15 14 12 14 13 17 22 23 23 22 20 20 21 20 20 21
7 7 8 8 6 5 6 6 5 6 6 6 7 8 8 8 8 8 9 9 9 8 7 7 7 8 9 9 9 9 11 11 11 10 11 10 8 8 7 7 7 6 5 4 4 4 4 5 5 5 4 5 5 4 2 0 3 5 5 6 11 12 8 6 7 8 5 6 8 8 10 13 15 18 21 21 22 22 20 19 20 20 20 21 22
6 7 6 6 6 6 5 6 6 5 6 7 6 7 8 8 9 9 10 10 10 10 9 8 8 8 8 8 8 8 10 12 14 11 10 10 10 9 6 6 6 6 5 4 4 3 3 3 4 4 5 5 5 5 5 5 6 9 5 3 7 9 9 10 9 6 7 7 8 8 8 8 9 9 8 8 10 11 13 18 14 17 20 21 22
6 6 7 6 7 7 7 6 6 6 6 5 7 11 8 7 8 7 7 8 9 10 10 9 8 7 8 7 8 13 15 15 15 15 15 13 11 10 10 8 8 6 6 5 5 4 4 4 5 5 5 6 5 4 6 5 4 5 7 7 9 10 9 10 11 6 5 6 8 9 8 6 7 8 7 8 7 6 7 7 7 10 14 20 21
7 7 7 7 6 6 7 7 7 6 6 6 11 11 11 11 8 8 9 8 9 9 10 11 11 9 7 8 8 11 13 12 12 15 14 14 13 13 13 11 9 9 8 6 5 5 5 5 4 4 5 8 7 4 5 6 5 6 6 6 8 8 8 10 13 10 2 5 5 5 8 5 3 7 7 7 6 6 6 7 12 17 19 20 23
6 6 6 6 6 6 5 6 7 7 6 7 12 12 12 13 11 8 8 8 8 10 10 10 10 10 10 9 7 7 8 9 9 9 11 13 14 13 13 11 11 10 8 6 5 4 4 4 5 5 4 7 8 3 5 5 6 6 6 7 8 8 10 10 11 12 4 4 5 7 10 6 2 6 8 8 6 6 7 10 16 19 21 24 26
6 6 6 7 7 6 6 6 6 5 4 7 10 13 15 15 12 9 6 7 8 8 10 11 12 12 10 10 8 6 6 8 8 7 8 8 10 12 11 11 11 11 11 11 9 6 2 4 5 7 4 6 9 6 3 4 6 10 9 9 7 7 8 11 12 11 10 4 8 11 13 12 9 8 10 10 8 6 8 12 17 20 23 24 23
7 6 6 7 6 7 7 6 5 5 5 8 11 10 10 12 12 9 6 7 6 8 9 10 10 11 11 11 10 8 6 6 6 7 7 7 6 6 5 5 4 7 10 11 11 12 9 6 6 8 5 4 8 9 6 4 7 8 8 9 9 9 10 12 13 13 11 8 9 10 12 12 10 10 11 10 8 7 7 11 19 21 23 23 23
8 8 8 7 6 5 5 5 4 4 4 9 10 11 11 13 14 9 7 6 6 6 6 6 8 10 10 9 9 9 8 7 7 8 8 7 6 5 5 4 4 4 4 4 4 4 5 6 7 8 8 6 7 8 7 5 6 8 8 10 10 10 11 12 12 11 11 7 7 6 11 10 8 9 10 10 8 9 7 9 16 19 22 24 24
4 5 5 6 7 7 6 6 6 6 5 11 12 13 14 15 13 8 7 7 7 6 6 7 7 8 8 9 9 8 8 7 8 12 9 7 6 6 5 4 3 2 2 4 7 7 6 6 6 7 7 7 10 9 9 8 7 6 7 8 7 8 10 11 12 10 10 8 4 6 8 10 8 9 10 9 8 10 8 6 9 17 20 22 23
7 6 6 6 6 7 7 7 7 6 6 10 13 14 15 16 10 7 7 7 7 7 7 7 8 8 7 7 8 8 7 7 10 13 12 9 5 5 4 3 2 2 3 4 8 11 13 14 15 15 16 17 17 17 17 17 12 10 8 9 9 7 9 11 10 10 10 9 4 5 7 10 7 8 9 8 8 9 8 7 5 9 16 20 22
7 7 6 6 6 6 7 7 7 7 6 10 15 15 16 16 12 9 7 8 8 8 6 6 6 6 6 8 6 8 8 7 12 13 13 9 5 4 3 2 1 1 2 2 2 4 9 10 11 12 14 14 15 16 16 15 15 12 7 9 9 8 9 9 10 10 11 9 6 3 5 8 8 7 9 8 10 7 8 7 7 7 13 15 18
7 6 6 6 6 5 6 7 9 9 7 9 15 16 17 16 12 8 8 8 8 7 7 6 4 5 5 5 7 6 6 8 12 12 12 9 4 4 3 1 1 2 3 2 3 3 3 3 4 5 5 8 8 8 7 12 14 12 8 9 7 7 8 9 10 10 9 7 4 2 8 9 9 8 8 8 9 9 7 4 5 5 5 5 5
Wind_Direction
170 153 160 173 176 149 146 163 169 171 157 162 164 150 117 108 111 111 99 92 83 74 73 71 73 67 77 74 66 62 62 64 63 58 55 55 42 37 29 25 39 102 103 98 94 94 97 92 92 95 90 88 81 78 77 76 74 72 69 66 65 64 63 64 63 62 62 62 61 59 57 55 53 52 49 48 46 45 43 41 40 40 34 33 31
169 160 164 177 162 146 149 168 170 166 151 163 164 130 125 128 125 119 111 101 90 79 77 69 64 65 69 79 68 67 63 68 64 64 62 54 53 43 36 32 28 45 70 97 106 107 99 97 95 92 91 89 86 85 81 77 74 72 70 68 67 64 63 64 64 64 63 63 60 58 56 55 54 51 49 49 47 44 42 39 38 36 33 30 28
172 166 166 168 154 151 159 164 158 158 156 162 141 132 133 131 129 123 114 108 99 90 85 82 72 67 71 78 71 65 58 54 65 63 63 61 58 54 43 36 36 27 53 76 74 79 99 105 104 101 97 89 85 83 79 77 74 70 68 66 64 65 65 65 66 65 64 62 60 59 57 55 53 51 49 48 45 43 40 39 37 34 33 30 28
176 177 169 160 159 157 157 155 160 160 158 154 137 136 132 128 116 111 113 107 103 96 88 84 74 75 74 78 75 71 66 66 65 66 68 67 65 59 53 45 36 39 28 52 87 86 83 84 90 92 93 97 91 84 82 77 72 70 67 67 67 68 66 66 66 65 64 62 60 58 56 54 52 50 47 44 44 41 40 38 36 34 32 28 24
185 182 167 162 162 159 157 159 159 159 156 147 137 128 121 111 108 111 106 102 99 96 91 83 85 69 75 81 84 78 76 71 66 61 70 71 71 70 64 54 48 36 31 26 47 86 90 91 94 96 94 94 93 90 84 79 76 74 69 67 69 70 71 70 67 64 62 60 59 56 55 52 50 48 46 44 41 40 37 35 32 29 28 25 23
181 186 169 162 164 165 158 157 157 149 143 140 135 132 127 125 130 117 115 111 113 109 102 92 86 81 77 85 82 83 76 71 66 68 64 64 64 69 76 71 62 52 35 28 23 57 91 91 94 90 87 86 88 91 89 84 80 77 74 72 72 71 71 69 67 64 61 59 57 55 52 50 48 47 43 42 39 37 36 31 28 26 25 24 22
180 182 179 169 169 167 163 157 141 136 136 136 130 132 136 142 142 127 124 117 119 112 110 108 100 92 80 81 90 88 77 79 73 68 65 61 59 61 59 68 69 68 44 37 25 26 49 89 84 85 94 94 93 89 88 86 84 83 80 79 75 72 71 69 67 63 60 59 57 54 52 48 46 43 41 40 37 34 32 28 25 23 22 20 18
182 179 180 176 169 173 169 157 148 144 144 142 138 147 151 152 153 145 135 139 128 118 109 112 106 95 84 75 90 88 85 71 70 72 71 66 66 63 63 68 85 83 79 57 47 37 43 49 61 73 78 81 86 92 94 94 92 85 87 84 77 74 70 68 67 64 61 57 54 53 49 47 44 41 39 37 35 33 29 26 23 20 18 16 15
196 185 180 180 171 173 168 165 157 154 157 154 150 153 156 154 151 160 147 144 137 123 113 108 102 91 81 70 66 91 90 93 86 87 80 84 88 82 70 61 65 93 96 82 61 50 42 47 43 42 59 81 81 74 80 87 88 93 91 87 79 75 71 67 64 65 60 56 52 50 46 44 42 39 36 35 29 29 27 25 21 18 14 14 14
197 183 183 180 175 175 163 162 162 157 157 157 153 146 153 156 149 156 158 142 138 134 126 114 103 98 81 66 55 67 90 101 100 84 85 85 80 85 81 69 67 68 84 96 94 76 59 45 42 34 48 76 74 74 71 76 86 91 90 89 86 78 71 64 61 57 58 55 50 46 43 42 38 36 33 31 27 23 21 19 17 15 14 11 9
193 179 178 179 176 174 164 162 162 159 155 154 145 149 154 153 152 140 117 116 142 134 129 120 108 97 84 68 56 43 55 73 82 83 87 90 92 87 79 66 65 59 61 58 53 65 80 73 53 42 42 63 72 71 60 60 64 76 88 91 89 80 73 65 56 49 50 53 49 46 40 36 34 31 30 27 24 19 17 14 13 12 11 7 7
188 175 169 172 177 175 168 162 163 159 160 155 154 159 161 155 166 150 134 109 104 128 127 120 101 89 83 71 59 40 47 70 86 105 109 113 105 98 94 84 75 72 64 55 51 48 65 92 100 86 55 55 56 50 48 44 44 52 56 76 84 86 72 62 60 47 41 38 43 39 34 32 28 28 26 22 19 15 13 11 10 7 8 6 5
183 177 175 173 177 173 168 170 168 168 168 173 169 167 165 163 154 155 144 135 132 134 132 126 122 96 76 78 66 43 38 86 85 92 105 104 100 100 101 90 83 75 73 63 53 48 48 46 50 62 71 58 41 44 44 37 36 37 28 22 70 73 76 68 53 55 38 32 29 30 29 24 24 24 19 15 11 9 7 8 6 6 6 2 360
182 179 176 173 175 174 171 173 171 176 176 169 159 150 149 151 149 127 152 149 152 159 150 133 143 156 148 140 71 37 20 64 89 72 89 98 107 102 107 105 94 99 85 71 58 58 48 44 44 44 55 77 71 55 44 36 26 31 28 19 13 67 63 64 57 33 36 24 13 19 19 20 19 16 11 7 5 4 3 2 3 3 0 359 356
181 178 174 173 171 171 178 176 177 170 162 154 154 152 157 158 162 155 146 79 129 164 166 173 137 123 109 95 175 143 280 319 160 144 122 105 97 97 105 110 120 135 126 101 83 69 63 59 57 52 47 66 93 90 74 61 55 40 31 24 20 25 35 47 45 37 19 17 7 7 13 16 12 8 4 0 359 359 357 357 358 358 356 355 354
176 173 172 171 169 172 171 177 179 174 172 165 166 166 161 162 164 168 156 146 167 180 193 192 153 139 153 196 157 130 206 233 184 214 151 138 124 121 115 114 99 109 110 116 113 98 88 82 77 81 70 72 89 99 101 115 90 65 37 25 21 24 10 30 28 21 9 8 5 5 8 8 5 1 357 354 354 353 351 352 353 353 352 352 351
178 171 166 169 166 170 173 178 179 180 178 174 176 179 177 178 177 171 176 166 170 175 189 204 185 192 137 134 127 207 221 163 125 241 134 123 156 142 138 137 144 173 116 121 116 122 123 106 105 90 96 88 93 92 76 87 101 65 34 345 30 31 22 15 18 13 9 2 5 2 3 2 357 354 351 349 348 346 345 347 347 347 347 348 348
180 178 172 170 167 171 176 179 183 180 181 181 181 177 180 179 185 181 183 183 166 167 179 208 199 205 217 126 153 171 170 162 132 203 101 201 169 138 143 158 164 163 135 135 141 142 135 133 122 114 101 98 104 110 100 86 95 93 28 289 73 33 31 14 2 357 3 2 360 354 354 351 351 348 346 343 341 340 340 341 342 341 343 345 344
179 180 180 178 173 173 178 186 189 186 177 169 172 182 185 187 178 178 193 177 168 173 180 187 189 235 217 151 124 170 143 140 191 105 150 245 166 144 169 168 161 155 153 161 159 148 149 140 146 140 124 114 113 123 127 138 139 153 109 44 60 39 17 16 0 346 354 352 351 347 344 344 343 343 340 336 335 334 334 336 335 338 339 339 336
184 189 185 179 175 176 180 183 186 189 177 180 178 178 174 182 187 192 182 183 189 190 186 180 181 195 199 170 135 119 158 163 154 163 155 157 206 224 160 168 175 193 165 169 163 159 159 155 145 146 132 130 125 132 145 159 148 112 86 15 21 9 353 348 348 338 343 342 343 339 337 337 338 337 333 330 330 329 329 330 331 334 334 331 330
190 189 190 178 178 179 179 183 185 186 189 182 178 175 181 180 185 189 194 198 199 200 182 192 197 184 172 186 165 168 182 194 158 150 137 116 136 179 183 169 185 238 199 171 175 165 164 162 167 159 153 154 145 173 175 159 146 138 103 348 342 335 329 334 330 328 330 329 331 331 329 331 332 330 328 327 324 324 325 324 327 329 325 323 327
182 189 187 186 180 178 182 184 184 180 183 185 175 178 185 188 192 192 193 194 197 200 194 195 200 195 188 170 167 164 151 197 195 176 88 119 159 190 184 170 188 229 192 179 175 169 160 159 160 158 160 177 178 185 171 139 139 109 8 305 301 317 316 319 314 315 315 314 317 318 318 321 324 323 322 320 320 320 320 321 323 323 319 319 323
166 184 189 184 185 183 183 183 182 176 181 181 182 185 188 190 193 198 199 196 197 199 201 201 193 196 187 180 184 180 176 174 192 178 146 131 88 150 166 189 183 168 209 175 167 167 156 159 168 189 185 180 179 181 180 158 145 156 188 242 263 278 291 298 300 299 300 303 306 305 309 311 313 314 313 313 316 316 315 316 319 316 314 315 321
174 176 194 181 181 189 180 178 178 171 183 185 185 188 189 189 190 194 201 205 205 201 201 195 191 193 187 191 194 187 163 152 173 167 158 167 142 161 164 150 161 206 168 154 163 167 180 176 189 189 195 181 188 182 188 168 177 183 186 227 249 260 269 279 284 289 290 295 297 298 301 304 303 303 304 306 310 311 309 311 312 310 309 313 318
187 186 195 186 182 182 183 186 184 179 180 183 190 186 184 188 193 196 200 201 202 198 203 204 194 192 189 188 181 181 186 168 157 170 170 132 131 124 180 156 153 153 162 147 186 203 190 198 191 195 191 192 189 186 184 188 190 192 185 218 243 259 262 267 277 282 286 288 290 292 295 295 295 294 297 301 303 303 304 306 305 304 307 311 312
181 194 184 180 187 196 195 200 197 188 185 187 186 185 182 186 190 195 201 205 201 202 202 195 190 190 176 173 173 172 176 156 161 158 159 126 138 147 143 165 100 140 123 156 194 143 254 210 201 191 196 192 194 190 195 205 198 193 189 198 243 259 259 258 265 273 275 277 281 284 285 286 287 289 290 294 297 297 298 300 299 301 305 308 308
187 189 177 183 188 189 194 198 196 192 187 182 183 178 179 180 188 199 203 201 204 201 191 179 181 170 166 163 152 148 147 140 135 151 147 150 151 153 143 136 89 99 155 190 205 213 206 209 190 202 197 200 196 197 203 208 203 188 190 201 223 248 253 253 259 266 268 273 276 278 279 279 281 283 284 287 290 292 293 294 295 299 303 305 304
188 176 188 183 184 186 190 198 191 187 187 186 181 180 179 183 190 192 199 190 194 195 184 170 171 169 153 140 136 144 135 125 118 122 121 142 144 150 145 146 143 163 158 183 212 244 191 187 235 213 197 199 205 197 208 208 215 190 189 208 225 247 253 253 258 263 268 272 274 275 277 277 277 278 280 282 284 286 287 288 291 293 295 297 297
185 180 175 180 180 183 185 187 184 185 185 189 185 186 183 185 187 193 198 190 182 182 164 162 158 142 139 141 135 128 126 118 109 107 111 114 135 145 152 157 156 136 157 185 225 217 251 181 174 229 192 200 202 199 203 211 208 191 203 212 228 238 245 255 263 268 272 274 276 277 278 278 276 275 276 278 280 283 283 283 284 288 292 294 294
177 178 171 173 179 179 182 185 185 182 186 183 184 184 179 185 190 196 190 173 171 156 153 140 151 135 126 120 126 121 132 110 118 116 110 118 115 116 113 119 138 148 157 161 216 188 216 203 183 198 196 202 194 210 198 210 212 211 212 221 229 237 251 260 267 272 273 273 276 279 278 277 275 273 272 274 277 279 280 281 283 286 289 290 293
157 158 162 170 172 178 178 183 182 187 180 181 180 175 173 175 179 182 171 166 158 161 164 150 152 134 131 128 126 124 133 121 115 107 104 105 107 101 97 91 88 118 125 118 118 238 143 181 230 189 179 201 196 201 208 204 217 216 220 228 236 243 254 261 266 270 271 271 274 276 275 274 274 272 272 273 276 278 280 281 283 284 286 287 290
165 159 166 170 170 173 178 174 179 180 180 182 178 178 165 169 163 167 173 161 158 157 157 151 147 143 139 137 140 138 143 127 117 110 105 98 103 102 103 97 91 99 106 108 121 187 276 176 184 202 186 182 188 193 221 227 227 211 223 233 240 244 253 258 265 265 267 269 274 275 275 274 273 273 273 272 274 276 279 282 282 282 283 286 289
157 162 166 170 170 175 174 178 180 184 186 183 181 173 171 165 159 161 164 162 157 157 148 151 147 142 141 139 142 145 152 130 127 114 106 108 101 98 99 96 90 85 99 101 114 116 328 72 122 172 159 138 199 199 218 229 245 242 234 241 243 244 248 252 256 258 261 267 271 274 276 275 274 275 273 271 271 273 277 279 279 279 280 282 285
167 168 170 165 170 170 172 178 182 185 187 182 176 170 170 165 165 164 169 166 161 159 155 154 155 147 142 139 142 148 155 126 125 115 119 116 113 104 95 102 95 81 88 104 118 131 229 356 23 45 119 154 225 187 201 224 244 235 240 245 245 235 245 253 253 254 256 261 267 271 272 273 275 275 273 270 270 272 275 278 279 278 278 279 280
170 169 167 167 169 167 170 176 177 181 183 179 177 175 175 171 170 174 174 172 167 164 166 163 157 148 143 143 147 148 141 119 117 117 119 118 113 105 101 95 98 97 85 101 111 94 68 283 177 169 219 244 208 242 224 222 234 229 238 245 240 243 240 245 249 255 255 260 266 269 270 272 273 273 271 269 269 270 273 276 278 278 276 275 276
162 162 162 163 157 164 170 172 177 180 178 176 176 182 179 175 174 176 175 176 177 176 169 161 155 154 150 143 151 148 135 121 120 117 118 115 109 108 105 104 104 101 95 89 80 129 50 220 291 226 259 208 261 244 239 237 230 239 237 255 257 252 253 246 246 253 253 257 262 265 268 270 270 270 269 269 269 269 270 273 275 275 273 272 274
163 157 157 155 160 165 175 178 180 183 182 176 176 180 182 180 176 172 175 174 176 180 176 168 161 155 155 153 153 145 133 121 123 122 127 115 115 113 115 114 111 108 93 89 88 101 154 250 274 262 266 276 233 231 224 232 253 255 258 254 256 256 259 255 248 249 250 254 259 261 262 263 265 265 265 267 268 267 267 270 273 274 272 272 274
165 168 164 168 173 176 178 181 181 181 174 176 181 182 179 170 167 165 165 169 172 173 175 170 162 158 154 152 150 144 136 132 135 131 126 123 119 117 118 118 112 103 107 111 123 148 198 230 244 281 254 248 284 256 224 231 246 267 273 265 261 254 258 269 256 246 245 247 250 255 259 258 258 259 261 263 264 265 265 266 269 272 274 273 274
167 166 167 170 183 174 176 172 179 178 178 179 180 179 176 171 165 160 158 159 162 164 168 165 158 154 149 146 146 144 137 136 137 140 134 125 121 121 125 123 122 126 135 146 153 183 208 236 252 251 273 264 248 274 262 217 232 239 260 289 285 253 229 256 274 261 233 244 248 247 243 238 242 244 250 256 260 261 262 264 267 270 275 276 276
167 168 172 177 176 168 168 171 173 167 168 173 177 178 173 168 162 159 159 160 158 154 149 148 146 147 147 145 145 145 140 140 138 140 133 128 127 127 133 131 137 142 151 159 174 196 220 238 248 264 263 273 277 270 298 220 275 275 231 243 275 291 288 258 239 262 256 238 251 256 252 251 250 253 253 254 256 257 259 263 266 270 274 277 278
165 168 164 162 158 166 165 166 167 167 175 182 181 174 168 166 162 165 166 163 158 151 145 142 140 142 145 143 142 139 133 133 133 133 137 139 138 137 145 145 148 150 153 167 180 193 225 233 259 259 265 268 264 281 283 258 245 265 275 228 266 279 285 287 277 233 229 248 257 255 254 235 245 248 243 246 253 256 260 262 266 272 274 275 277
163 156 156 163 166 167 167 174 174 175 185 186 183 176 166 158 158 163 160 158 153 152 147 138 132 138 140 136 132 129 127 127 131 132 133 135 137 143 154 155 156 154 162 167 187 202 206 225 240 248 263 263 258 256 271 270 269 288 296 292 284 289 293 285 284 262 211 238 263 265 260 247 238 255 249 247 254 248 246 255 252 254 259 267 276
155 154 153 160 165 167 174 179 182 186 185 185 180 181 171 162 161 163 162 156 152 152 153 148 145 143 134 127 123 122 124 128 132 134 135 135 135 139 149 157 161 160 161 173 197 194 202 223 233 238 255 274 270 252 265 283 284 278 276 280 284 296 294 301 298 303 220 186 250 278 282 276 242 260 262 259 257 253 251 246 245 255 264 274 286
153 148 153 160 160 165 170 177 183 184 183 174 178 177 175 173 170 166 158 155 157 156 153 147 143 142 140 132 127 128 133 135 137 136 141 146 146 148 155 164 174 179 178 170 180 191 199 218 245 239 245 269 282 290 282 286 287 288 285 285 287 293 296 294 290 292 316 28 321 307 294 296 251 251 272 269 254 241 246 245 254 266 277 288 293
147 157 165 159 170 170 173 179 180 168 160 156 159 170 179 179 159 149 150 154 154 154 152 153 152 149 143 133 129 129 133 127 134 141 143 148 153 159 171 183 196 202 212 219 221 211 184 234 249 265 234 270 284 278 243 283 298 295 298 292 293 292 289 286 284 293 296 342 317 296 292 293 289 277 274 273 272 248 257 259 268 277 284 289 291
152 156 162 167 166 173 176 174 158 144 139 148 141 149 149 145 134 133 141 144 148 154 157 158 151 147 146 144 142 141 144 146 149 146 142 140 144 158 177 187 190 215 225 233 240 245 246 237 241 258 255 217 266 281 285 290 291 290 296 292 295 291 286 280 285 285 289 296 284 291 284 287 289 287 280 282 284 269 263 267 274 280 288 290 291
163 168 167 163 163 158 157 151 146 141 137 147 143 144 140 133 128 121 130 129 131 133 135 145 147 142 139 139 142 146 155 162 166 157 146 146 147 158 169 177 181 184 190 201 215 223 231 240 247 252 264 253 260 278 288 280 265 270 275 282 290 292 292 293 290 287 288 280 276 273 280 286 290 285 283 290 291 283 272 268 274 281 287 290 291
140 136 144 151 156 157 155 149 145 143 150 155 149 149 141 133 127 127 133 131 127 124 122 129 135 138 143 146 145 151 160 163 172 163 149 145 152 167 183 181 165 168 193 209 227 232 231 230 235 246 252 264 278 283 290 295 298 303 300 301 300 294 293 291 291 298 290 296 268 267 279 283 286 284 286 288 288 281 279 268 271 278 282 287 290
151 156 158 154 149 149 149 149 143 142 150 156 153 153 148 137 128 129 126 123 122 122 129 140 143 145 147 150 148 150 155 164 173 170 164 155 165 182 194 188 171 170 212 218 234 244 250 254 258 269 283 294 299 300 302 304 305 306 300 295 292 295 290 288 286 291 292 302 297 280 285 290 295 293 291 289 289 285 286 280 264 273 278 281 287
154 155 146 141 145 148 151 152 151 144 153 162 160 161 154 145 139 132 129 124 125 126 126 131 133 134 136 140 142 149 157 166 174 176 176 168 175 184 184 192 200 224 252 229 232 237 247 255 266 273 280 286 290 296 293 289 284 278 270 276 279 283 284 287 296 299 296 301 311 326 300 289 303 303 301 300 292 277 281 285 278 259 269 275 278
138 137 139 139 142 145 149 144 142 141 151 166 166 164 154 145 139 133 134 127 127 134 135 128 113 121 127 135 143 155 158 166 173 181 188 180 160 171 179 168 232 248 244 217 230 251 257 263 267 259 263 275 284 287 283 285 286 287 276 276 289 292 286 286 283 290 294 300 327 40 309 301 307 306 309 309 290 289 287 262 281 282 262 259 269